Location: Cucq
(50.4773°N, 1.6202°E)
Time: 20:15:14
(UTC+00:00)

MOZ.5/SAFIR/RUBIN 5/SL-8 - Pass Details

Date: 07 August 2020
Orbit: 677 x 706 km, 98.1° (Epoch: 21 September)

Event Time Altitude Azimuth Distance (km) Brightness Sun altitude
Exits shadow 01:36:58 44° 210° (SSW) 978 4.1 -19.8°
Maximum altitude 01:38:09 57° 259° (W) 835 3.9 -19.8°
Drops below altitude 10° 01:42:51 10° 338° (NNW) 2,178 6.9 -19.4°
Sets 01:45:09 0° 343° (NNW) 3,096 7.9 -19.3°
